User: anonymous   Login
Location: Unspecified
(0.0000°N, 0.0000°E)
Time: 21:49:57
(UTC+00:00)
Language:

Symphonie 1 - Orbit

View from above orbital plane
View from above orbital plane
View from above satellite
View from above satellite

Ground track
Ground track

The orbit data is extracted from the following two-line orbital elements,

1  7578U 74101A   18114.69779194 -.00000256 +00000-0 +00000-0 0  9991
2  7578 011.5251 314.4066 0002924 358.2108 248.9030 00.99944417087459
Epoch (UTC): 24 April 2018 16:44:49
Eccentricity: 0.0002924
inclination: 11.5251°
perigee height: 35866 km
apogee height: 35890 km
right ascension of ascending node: 314.4066°
argument of perigee: 358.2108°
revolutions per day: 0.99944417
mean anomaly at epoch: 248.9030°
orbit number at epoch: 8745

The dashed part of the orbit path shows where the satellite is in the earth's shadow,  

DLR